IRNSS-1I

Last updated on Sat Aug 22 2026 00:02:59 GMT+0000 (Coordinated Universal Time)

1 43286U 18035A 26233.13667713 .00000069 00000+0 00000+0 0 9993 2 43286 28.9033 73.1819 0019167 177.3084 183.2811 1.00276402 30732
UTC large
Height (km)
Speed (km/s)
/
Latitude / Longitude
Inclination (degrees)
Orbital Period (minutes)
Azimuth
Elevation
Range (km)
Doppler Factor

Next 0 passes for location: London (51.5072 / 0.1276)

No passes found over London.
IRNSS-1I